DW7177 Weather Reports


time (UTC)temp
C
wind
direction
speed
KPH
gust
KPH
rain 1hr
cm
rain 24hr
cm
rain mn
cm
humidity
%
barometer
mb
20260506072803 6 255 0.0 3.2 0.00 0.00 0.00 73 1016.3
20260506072403 6 255 0.0 4.8 0.00 0.00 0.00 74 1016.3
20260506072004 6 255 0.0 6.4 0.00 0.00 0.00 74 1016.4
20260506071603 6 255 0.0 6.4 0.00 0.00 0.00 76 1016.4
20260506071203 6 255 0.0 6.4 0.00 0.00 0.00 76 1016.4
20260506070803 5 255 0.0 3.2 0.00 0.00 0.00 78 1016.4
20260506070403 5 255 0.0 8.0 0.00 0.00 0.00 78 1016.4
20260506062403 3 254 0.0 4.8 0.00 0.00 0.00 83 1016.1
20260506062003 3 254 0.0 4.8 0.00 0.00 0.00 84 1016.1
20260506061603 3 254 0.0 6.4 0.00 0.00 0.00 84 1016.1
20260506061203 3 254 0.0 6.4 0.00 0.00 0.00 85 1016.0
20260506060803 2 254 0.0 3.2 0.00 0.00 0.00 86 1016.1
20260506060403 2 254 0.0 3.2 0.00 0.00 0.00 86 1016.0
20260506051203 1 254 0.0 1.6 0.00 0.00 0.00 88 1016.1
20260506050803 1 254 0.0 1.6 0.00 0.00 0.00 88 1016.1
20260506050403 1 254 0.0 1.6 0.00 0.00 0.00 88 1016.1
20260506044803 1 254 0.0 1.6 0.00 0.00 0.00 88 1016.1
20260506044403 1 254 0.0 1.6 0.00 0.00 0.00 88 1016.0
20260506044218 1 254 0.0 1.6 0.00 0.00 0.00 88 1016.0
20260506043603 1 254 0.0 3.2 0.00 0.00 0.00 87 1016.0
20260506043203 1 254 0.0 3.2 0.00 0.00 0.00 87 1016.0
20260506043017 1 254 0.0 3.2 0.00 0.00 0.00 87 1016.1
20260506042403 1 254 0.0 3.2 0.00 0.00 0.00 87 1016.1
20260506042218 1 254 0.0 3.2 0.00 0.00 0.00 87 1016.1
20260506041603 1 254 0.0 4.8 0.00 0.00 0.00 87 1016.0
20260506041203 1 254 1.6 6.4 0.00 0.00 0.00 87 1016.0
20260506041017 1 254 1.6 6.4 0.00 0.00 0.00 87 1015.9
20260506040403 1 254 0.0 6.4 0.00 0.00 0.00 88 1015.9
20260506040003 1 254 0.0 4.8 0.00 0.00 0.00 88 1016.0
20260506035603 1 254 0.0 3.2 0.00 0.00 0.00 88 1016.0
20260506035203 1 254 0.0 1.6 0.00 0.00 0.00 88 1016.1
20260506034803 1 254 0.0 1.6 0.00 0.00 0.00 88 1016.1
20260506034403 1 254 0.0 1.6 0.00 0.00 0.00 87 1016.1
20260506034003 1 254 0.0 1.6 0.00 0.00 0.00 87 1016.1
20260506033603 1 254 0.0 1.6 0.00 0.00 0.00 87 1016.1
20260506033203 1 254 0.0 1.6 0.00 0.00 0.00 87 1016.1
20260506032803 1 254 0.0 1.6 0.00 0.00 0.00 87 1016.1
20260506032403 1 254 0.0 1.6 0.00 0.00 0.00 87 1016.1
20260506032003 1 254 0.0 1.6 0.00 0.00 0.00 87 1016.2
20260506031818 1 254 0.0 1.6 0.00 0.00 0.00 87 1016.2
20260506031203 1 254 0.0 3.2 0.00 0.00 0.00 88 1016.2
20260506030803 1 254 0.0 3.2 0.00 0.00 0.00 88 1016.2
20260506030403 1 254 0.0 3.2 0.00 0.00 0.00 88 1016.2
20260506030003 1 254 0.0 1.6 0.00 0.00 0.00 88 1016.2
20260506025603 1 254 0.0 1.6 0.00 0.00 0.00 88 1016.1
20260506025203 1 254 0.0 1.6 0.00 0.00 0.00 88 1016.1
20260506025017 1 254 0.0 1.6 0.00 0.00 0.00 88 1016.2
20260506024617 1 254 0.0 1.6 0.00 0.00 0.00 88 1016.1
20260506024003 1 254 0.0 3.2 0.00 0.00 0.00 88 1016.1
20260506023603 1 254 0.0 3.2 0.00 0.00 0.00 89 1016.2
20260506023203 1 254 0.0 1.6 0.00 0.00 0.00 89 1016.2
20260506022803 1 0 0.0 0.0 0.00 0.00 0.00 89 1016.2
20260506022403 1 254 0.0 1.6 0.00 0.00 0.00 89 1016.3
20260506022003 1 254 0.0 1.6 0.00 0.00 0.00 89 1016.2
20260506021603 1 254 0.0 1.6 0.00 0.00 0.00 89 1016.3
20260506021203 1 254 0.0 1.6 0.00 0.00 0.00 89 1016.3
20260506021017 1 254 0.0 1.6 0.00 0.00 0.00 89 1016.3
20260506020403 1 254 0.0 1.6 0.00 0.00 0.00 89 1016.2
20260506020217 1 254 0.0 1.6 0.00 0.00 0.00 90 1016.2
20260506015818 1 254 0.0 1.6 0.00 0.00 0.00 90 1016.3
20260506015203 1 0 0.0 0.0 0.00 0.00 0.00 90 1016.3
20260506014803 1 254 0.0 1.6 0.00 0.00 0.00 89 1016.3
20260506014403 1 254 0.0 1.6 0.00 0.00 0.00 89 1016.3
20260506014217 1 254 0.0 1.6 0.00 0.00 0.00 89 1016.3
20260506013603 1 254 0.0 1.6 0.00 0.00 0.00 89 1016.3
20260506013203 1 254 0.0 1.6 0.00 0.00 0.00 89 1016.3
20260506012803 1 254 0.0 1.6 0.00 0.00 0.00 89 1016.3
20260506012403 1 254 0.0 1.6 0.00 0.00 0.00 89 1016.3
20260506012003 1 254 0.0 1.6 0.00 0.00 0.00 89 1016.3
20260506011817 1 254 0.0 1.6 0.00 0.00 0.00 89 1016.3
20260506011418 1 254 0.0 3.2 0.00 0.00 0.00 89 1016.3
20260506010803 2 254 0.0 3.2 0.00 0.00 0.00 89 1016.4
20260506010403 2 254 0.0 1.6 0.00 0.00 0.00 89 1016.3
20260506010003 2 254 0.0 1.6 0.00 0.00 0.00 89 1016.3
20260506005817 2 254 0.0 1.6 0.00 0.00 0.00 89 1016.3
20260506005203 2 254 0.0 1.6 0.00 0.00 0.00 88 1016.4
20260506005018 2 254 0.0 1.6 0.00 0.00 0.00 88 1016.4
20260506004403 2 254 0.0 1.6 0.00 0.00 0.00 88 1016.4
20260506004003 2 254 0.0 1.6 0.00 0.00 0.00 88 1016.4
20260506003603 2 254 0.0 1.6 0.00 0.00 0.00 88 1016.4
20260506003418 2 254 0.0 1.6 0.00 0.00 0.00 88 1016.4
20260506003018 2 254 0.0 1.6 0.00 0.00 0.00 87 1016.4
20260506002403 2 254 0.0 1.6 0.00 0.00 0.00 86 1016.4
20260506002217 2 254 0.0 1.6 0.00 0.00 0.00 86 1016.5
20260506001603 2 254 0.0 1.6 0.00 0.00 0.00 85 1016.4
20260506001203 3 254 0.0 1.6 0.00 0.00 0.00 83 1016.4
20260506000803 3 254 0.0 1.6 0.00 0.00 0.00 83 1016.4
20260506000618 3 254 0.0 1.6 0.00 0.00 0.00 83 1016.4
20260506000003 3 254 0.0 1.6 0.00 0.00 0.00 83 1016.4
20260505235817 3 254 0.0 1.6 0.00 0.00 0.00 83 1016.5
20260505235203 3 254 0.0 1.6 0.00 0.00 0.00 83 1016.5
20260505234803 3 254 0.0 1.6 0.00 0.00 0.00 83 1016.5
20260505234403 3 254 0.0 1.6 0.00 0.00 0.00 83 1016.5
20260505234003 3 254 0.0 1.6 0.00 0.00 0.00 83 1016.6
20260505233603 3 254 0.0 1.6 0.00 0.00 0.00 84 1016.6
20260505233203 3 254 0.0 1.6 0.00 0.00 0.00 84 1016.6
20260505233017 3 254 0.0 1.6 0.00 0.00 0.00 84 1016.6
20260505232403 3 254 0.0 1.6 0.00 0.00 0.00 84 1016.6
20260505232003 3 254 0.0 1.6 0.00 0.00 0.00 85 1016.7
20260505231603 3 254 0.0 3.2 0.00 0.00 0.00 85 1016.7
20260505231203 3 254 0.0 3.2 0.00 0.00 0.00 85 1016.8
20260505230803 3 254 0.0 1.6 0.00 0.00 0.00 85 1016.8
20260505230403 3 254 0.0 3.2 0.00 0.00 0.00 86 1016.7
20260505230004 3 254 0.0 3.2 0.00 0.00 0.00 86 1016.8
20260505225603 3 254 0.0 3.2 0.00 0.00 0.00 87 1016.8
20260505225203 3 254 0.0 1.6 0.00 0.00 0.00 87 1016.8
20260505224803 3 254 0.0 1.6 0.00 0.00 0.00 88 1016.8
20260505224403 3 254 0.0 1.6 0.00 0.00 0.00 88 1016.8
20260505224003 3 254 0.0 1.6 0.00 0.00 0.00 88 1016.8
20260505223603 3 254 0.0 3.2 0.00 0.00 0.00 88 1016.8
20260505223203 3 254 0.0 3.2 0.00 0.00 0.00 88 1016.8
20260505222803 3 254 0.0 3.2 0.00 0.00 0.00 88 1016.8
20260505222618 3 254 0.0 3.2 0.00 0.00 0.00 88 1016.8
20260505222003 4 254 0.0 1.6 0.00 0.00 0.00 87 1016.8
20260505221604 4 254 0.0 1.6 0.00 0.00 0.00 87 1016.7
20260505221203 4 254 0.0 1.6 0.00 0.00 0.00 87 1016.7
20260505221017 4 254 0.0 1.6 0.00 0.00 0.00 87 1016.7
20260505220403 4 0 0.0 0.0 0.00 0.00 0.00 86 1016.7
20260505220218 4 0 0.0 0.0 0.00 0.00 0.00 86 1016.8
20260505215603 4 254 0.0 1.6 0.00 0.00 0.00 86 1016.8
20260505215416 4 254 0.0 1.6 0.00 0.00 0.00 86 1016.8
20260505215017 4 254 0.0 1.6 0.00 0.00 0.00 86 1016.8
20260505214403 5 254 0.0 1.6 0.00 0.00 0.00 85 1016.8
20260505214003 5 254 0.0 1.6 0.00 0.00 0.00 85 1016.8
20260505213603 5 254 0.0 1.6 0.00 0.00 0.00 84 1016.7
20260505213418 5 0 0.0 0.0 0.00 0.00 0.00 84 1016.8
20260505212803 5 0 0.0 0.0 0.00 0.00 0.00 84 1016.8
20260505212403 5 0 0.0 0.0 0.00 0.00 0.00 84 1016.8
20260505212003 5 0 0.0 0.0 0.00 0.00 0.00 84 1016.9
20260505211603 5 255 0.0 1.6 0.00 0.00 0.00 84 1016.9
20260505211203 5 255 0.0 1.6 0.00 0.00 0.00 83 1016.9
20260505211017 5 255 0.0 1.6 0.00 0.00 0.00 83 1016.9
20260505210403 5 0 0.0 0.0 0.00 0.00 0.00 82 1016.9
20260505210217 5 0 0.0 0.0 0.00 0.00 0.00 82 1016.8
20260505205603 5 0 0.0 0.0 0.00 0.00 0.00 82 1016.9
20260505205205 5 0 0.0 0.0 0.00 0.00 0.00 82 1016.9
20260505204803 6 0 0.0 0.0 0.00 0.00 0.00 81 1016.9
20260505204403 6 0 0.0 0.0 0.00 0.00 0.00 81 1016.9
20260505204003 6 254 0.0 4.8 0.00 0.00 0.00 81 1016.9
20260505203603 6 254 0.0 4.8 0.00 0.00 0.00 81 1016.8
20260505203203 6 0 0.0 0.0 0.00 0.00 0.00 81 1016.8
20260505202803 6 0 0.0 0.0 0.00 0.00 0.00 81 1016.8
20260505202403 6 254 0.0 3.2 0.00 0.00 0.00 81 1016.8
20260505202003 6 254 0.0 3.2 0.00 0.00 0.00 81 1016.8
20260505201603 6 0 0.0 0.0 0.00 0.00 0.00 80 1016.8
20260505201418 6 254 0.0 1.6 0.00 0.00 0.00 80 1016.8
20260505200803 6 254 0.0 1.6 0.00 0.00 0.00 80 1016.8
20260505200403 6 254 0.0 6.4 0.00 0.00 0.00 81 1016.8
20260505200003 6 254 0.0 6.4 0.00 0.00 0.00 80 1016.8
20260505195603 6 254 0.0 6.4 0.00 0.00 0.00 81 1016.6
20260505195203 6 254 0.0 6.4 0.00 0.00 0.00 81 1016.7
20260505194803 6 254 0.0 6.4 0.00 0.00 0.00 80 1016.6
20260505194403 6 254 0.0 4.8 0.00 0.00 0.00 80 1016.6
20260505194003 6 254 0.0 4.8 0.00 0.00 0.00 80 1016.6
20260505193603 6 254 0.0 4.8 0.00 0.00 0.00 80 1016.7
20260505193203 7 254 0.0 3.2 0.00 0.00 0.00 80 1016.6
20260505192803 7 254 0.0 4.8 0.00 0.00 0.00 80 1016.6
20260505192618 7 254 0.0 4.8 0.00 0.00 0.00 80 1016.6
20260505192003 7 254 0.0 6.4 0.00 0.00 0.00 80 1016.5
20260505191603 7 254 0.0 6.4 0.00 0.00 0.00 79 1016.6
20260505191203 7 254 0.0 6.4 0.00 0.00 0.00 79 1016.5
20260505191018 7 254 0.0 4.8 0.00 0.00 0.00 79 1016.5
20260505190618 7 254 0.0 4.8 0.00 0.00 0.00 79 1016.5
20260505190217 7 254 0.0 4.8 0.00 0.00 0.00 79 1016.5
20260505185603 7 254 0.0 4.8 0.00 0.00 0.00 80 1016.3
20260505185203 7 254 0.0 3.2 0.00 0.00 0.00 80 1016.3
20260505184803 7 254 0.0 3.2 0.00 0.00 0.00 80 1016.3
20260505184403 7 254 0.0 6.4 0.00 0.00 0.00 80 1016.3
20260505184217 7 254 0.0 6.4 0.00 0.00 0.00 79 1016.3
20260505183817 7 254 0.0 6.4 0.00 0.00 0.00 78 1016.2
20260505183203 7 255 0.0 4.8 0.00 0.00 0.00 78 1016.2
20260505183018 7 255 0.0 4.8 0.00 0.00 0.00 78 1016.3
20260505182403 7 255 1.6 8.0 0.00 0.00 0.00 77 1016.2
20260505182218 7 254 1.6 8.0 0.00 0.00 0.00 77 1016.2
20260505181603 7 254 1.6 8.0 0.00 0.00 0.00 76 1016.2
20260505181203 7 254 1.6 6.4 0.00 0.00 0.00 77 1016.2
20260505180803 7 254 1.6 12.9 0.00 0.00 0.00 76 1016.2
20260505180403 7 254 1.6 12.9 0.00 0.00 0.00 76 1016.1
20260505180218 7 254 1.6 12.9 0.00 0.00 0.00 76 1016.1
20260505175817 7 254 1.6 12.9 0.00 0.00 0.00 76 1016.2
20260505175203 7 254 1.6 9.7 0.00 0.00 0.00 75 1016.1
20260505174803 7 254 1.6 8.0 0.00 0.00 0.00 74 1016.2
20260505174618 7 254 1.6 6.4 0.00 0.00 0.00 74 1016.2
20260505174218 7 254 1.6 6.4 0.00 0.00 0.00 74 1016.1
20260505173817 7 254 1.6 6.4 0.00 0.00 0.00 74 1016.1
20260505173417 7 254 1.6 4.8 0.00 0.00 0.00 75 1016.1
20260505172803 7 254 1.6 6.4 0.00 0.00 0.00 75 1016.1
20260505172403 7 254 1.6 6.4 0.00 0.00 0.00 75 1016.2
20260505172218 7 254 1.6 6.4 0.00 0.00 0.00 75 1016.2
20260505171603 7 255 1.6 6.4 0.00 0.00 0.00 75 1016.3
20260505171203 8 255 1.6 9.7 0.00 0.00 0.00 75 1016.2
20260505170803 8 255 1.6 9.7 0.00 0.00 0.00 74 1016.1
20260505170403 8 255 1.6 9.7 0.00 0.00 0.00 74 1016.1
20260505170003 8 255 1.6 8.0 0.00 0.00 0.00 74 1016.2
20260505165818 8 254 1.6 8.0 0.00 0.00 0.00 74 1016.1
20260505165203 8 254 1.6 6.4 0.00 0.00 0.00 73 1016.2
20260505164803 8 254 1.6 8.0 0.00 0.00 0.00 74 1016.2
20260505164403 8 254 1.6 8.0 0.00 0.00 0.00 76 1016.2
20260505164003 8 254 1.6 8.0 0.00 0.00 0.00 75 1016.0
20260505163818 8 254 1.6 8.0 0.00 0.00 0.00 74 1016.1
20260505163203 8 254 1.6 8.0 0.00 0.00 0.00 74 1016.1
20260505162803 8 254 1.6 8.0 0.00 0.00 0.00 74 1016.1
20260505162403 8 254 1.6 8.0 0.00 0.00 0.00 74 1016.0
20260505162003 8 254 1.6 8.0 0.00 0.00 0.00 74 1015.9
20260505161603 8 253 1.6 11.3 0.00 0.00 0.00 75 1015.9
20260505161418 8 253 1.6 11.3 0.00 0.00 0.00 74 1015.9
20260505160803 8 253 1.6 8.0 0.00 0.00 0.00 73 1015.8
20260505160403 8 253 1.6 8.0 0.00 0.00 0.00 73 1015.7
20260505152803 9 252 3.2 9.7 0.00 0.00 0.00 72 1015.7
20260505152403 9 252 3.2 9.7 0.00 0.00 0.00 71 1015.7
20260505152003 10 252 1.6 9.7 0.00 0.00 0.00 71 1015.8
20260505151603 10 252 1.6 9.7 0.00 0.00 0.00 70 1015.6
20260505151203 10 252 1.6 9.7 0.00 0.00 0.00 71 1015.6
20260505150803 10 252 1.6 9.7 0.00 0.00 0.00 71 1015.6
20260505150617 10 252 1.6 9.7 0.00 0.00 0.00 69 1015.5
20260505150217 10 252 1.6 8.0 0.00 0.00 0.00 72 1015.4
20260505140403 9 251 3.2 9.7 0.00 0.00 0.00 77 1015.3
20260505125017 10 249 1.6 8.0 0.00 0.00 0.00 66 1015.0
20260505124618 11 249 1.6 8.0 0.00 0.00 0.00 69 1015.0
20260505124003 10 250 1.6 6.4 0.00 0.00 0.00 70 1015.0
20260505123603 10 249 1.6 8.0 0.00 0.00 0.00 72 1015.0
20260505123417 10 249 1.6 8.0 0.00 0.00 0.00 72 1015.0
20260505123017 10 249 1.6 8.0 0.00 0.00 0.00 73 1015.0
20260505122403 10 249 1.6 11.3 0.00 0.00 0.00 73 1014.9
20260505122003 10 249 1.6 11.3 0.00 0.00 0.00 73 1014.8
20260505121603 10 250 1.6 11.3 0.00 0.00 0.00 74 1014.8
20260505121203 10 250 1.6 8.0 0.00 0.00 0.00 74 1014.8
20260505120803 10 250 1.6 8.0 0.00 0.00 0.00 74 1014.8
20260505120403 10 250 1.6 8.0 0.00 0.00 0.00 75 1014.8
20260505120218 10 250 1.6 8.0 0.00 0.00 0.00 75 1014.8
20260505115818 9 250 1.6 8.0 0.00 0.00 0.00 76 1014.8
20260505115203 9 250 1.6 8.0 0.00 0.00 0.00 75 1014.8
20260505114803 10 250 1.6 6.4 0.00 0.00 0.00 75 1014.8
20260505114617 10 250 0.0 6.4 0.00 0.00 0.00 77 1014.8
20260505114003 10 250 1.6 6.4 0.00 0.00 0.00 77 1014.6
20260505113603 10 250 1.6 6.4 0.00 0.00 0.00 77 1014.6
20260505113203 10 250 1.6 6.4 0.00 0.00 0.00 77 1014.5
20260505112803 10 250 0.0 6.4 0.00 0.00 0.00 78 1014.6
20260505112403 10 250 0.0 4.8 0.00 0.00 0.00 79 1014.6
20260505112003 10 250 0.0 3.2 0.00 0.00 0.00 79 1014.6
20260505111818 10 250 0.0 4.8 0.00 0.00 0.00 79 1014.6
20260505111203 10 250 1.6 6.4 0.00 0.00 0.00 82 1014.6
20260505110803 9 250 1.6 6.4 0.00 0.00 0.00 83 1014.6
20260505110617 9 250 1.6 6.4 0.00 0.00 0.00 84 1014.6
20260505102003 10 250 0.0 4.8 0.00 0.00 0.00 84 1014.4
20260505101818 10 250 0.0 4.8 0.00 0.00 0.00 84 1014.5
20260505101203 10 250 0.0 4.8 0.00 0.00 0.00 84 1014.5
20260505100803 10 250 0.0 4.8 0.00 0.00 0.00 85 1014.4
20260505100403 10 250 1.6 4.8 0.00 0.00 0.00 83 1014.4
20260505100003 10 250 1.6 9.7 0.00 0.00 0.00 83 1014.4
20260505095603 10 250 1.6 9.7 0.00 0.00 0.00 81 1014.4
20260505095203 10 250 1.6 9.7 0.00 0.00 0.00 80 1014.3
20260505094803 10 250 0.0 6.4 0.00 0.00 0.00 79 1014.2
20260505094403 10 250 0.0 6.4 0.00 0.00 0.00 78 1014.2
20260505094003 10 250 0.0 8.0 0.00 0.00 0.00 80 1014.2
20260505093603 10 250 0.0 8.0 0.00 0.00 0.00 77 1014.2
20260505093203 10 250 0.0 8.0 0.00 0.00 0.00 78 1014.2
20260505092803 10 250 1.6 6.4 0.00 0.00 0.00 77 1014.1
20260505092403 10 250 0.0 6.4 0.00 0.00 0.00 76 1014.2
20260505092003 10 250 0.0 6.4 0.00 0.00 0.00 76 1014.1
20260505091603 10 250 0.0 3.2 0.00 0.00 0.00 77 1014.1
20260505091203 10 250 0.0 4.8 0.00 0.00 0.00 77 1014.1
20260505090803 10 250 1.6 6.4 0.00 0.00 0.00 77 1014.1
20260505090403 10 250 1.6 9.7 0.00 0.00 0.00 77 1014.1
20260505090003 10 250 1.6 9.7 0.00 0.00 0.00 77 1014.1
20260505085603 10 250 1.6 9.7 0.00 0.00 0.00 76 1014.1
20260505085418 10 250 1.6 9.7 0.00 0.00 0.00 76 1014.1
20260505085018 10 250 1.6 9.7 0.00 0.00 0.00 76 1014.1
20260505084403 10 250 1.6 8.0 0.00 0.00 0.00 76 1014.1
20260505084003 10 250 1.6 8.0 0.00 0.00 0.00 76 1014.1
20260505083603 10 250 0.0 6.4 0.00 0.00 0.00 77 1014.1
20260505083203 10 250 1.6 6.4 0.00 0.00 0.00 76 1014.1
20260505083018 10 250 1.6 9.7 0.00 0.00 0.00 77 1014.1
20260505082403 10 250 1.6 9.7 0.00 0.00 0.00 77 1014.1
20260505082003 10 250 1.6 8.0 0.00 0.00 0.00 77 1014.1
20260505081603 10 250 1.6 6.4 0.00 0.00 0.00 77 1014.0
20260505081203 10 250 1.6 6.4 0.00 0.00 0.00 78 1014.0
20260505080803 9 250 1.6 6.4 0.00 0.00 0.00 78 1014.0
20260505080403 9 250 3.2 12.9 0.00 0.00 0.00 78 1014.0
20260505080003 9 250 3.2 12.9 0.00 0.00 0.00 79 1014.0
20260505075603 9 250 3.2 12.9 0.00 0.00 0.00 78 1013.9
20260505075203 9 250 1.6 9.7 0.00 0.00 0.00 79 1014.0
20260505074803 9 250 1.6 12.9 0.00 0.00 0.00 79 1014.0
20260505074403 9 250 3.2 12.9 0.00 0.00 0.00 79 1013.9
20260505074003 9 250 3.2 12.9 0.00 0.00 0.00 79 1013.9
20260505073817 9 250 3.2 12.9 0.00 0.00 0.00 79 1013.9